Погода в Большой Картеле

Россия / Хабаровский край     50°23′16″N   137°22′58″E
темп.,
°C
ветер,
м/с
пор.,
м/с
влажн.,
%
обл.,
%
осадки,
мм/ч
давл.,
гПа
погр.,
м
3 июля, вс
вс301:00+20ююв289861 0.0 1004244
04:00+19ююв2598100 0.0 1004127
07:00+21ю2592100 0.0 1004288
10:00+24ююз237799 0.1 1004756
13:00+26ююз1268100 0.1 1003970
16:00+27в016399 0.1 1002893
19:00+26всв117619 0.7 100223
22:00+20ссв229338 2.9 100317
4 июля, пн
пн401:00+18ссв239719 0.0 100369
04:00+17ссв239773 0.0 100457
07:00+18ссв239444 0.0 1004124
10:00+25ссв226632 0.0 1005675
13:00+29в125626 0.1 10041448
16:00+30юз125152 0.5 10031681
19:00+26юз118196 1.5 100447
22:00+21юз0093100 2.8 100511
5 июля, вт
вт501:00+20в0094100 0.0 100511
04:00+19св1196100 0.0 100615
07:00+21вюв11926 0.0 100796
10:00+27ю12637 0.0 1007668
13:00+29ююз32532 0.0 10061179
16:00+29ююз33550 0.0 10061099
19:00+27юз23700 0.0 1006366
22:00+22ююз22910 0.0 100721
6 июля, ср
ср601:00+21ю22950 0.0 100820
04:00+20ю22970 0.0 100829
07:00+23ю24860 0.0 1009211
10:00+27ююз35660 0.0 1009816
13:00+30ююз46573 0.0 10081274
16:00+30юз4758100 0.0 10071007
19:00+28ююз38721 0.0 1007741
22:00+23ю379413 0.0 1007158
7 июля, чт
чт701:00+22ююв279882 0.0 1007212
04:00+21ю259725 0.0 1007111
07:00+24ю37885 0.0 1007307
10:00+28ююз58703 0.0 1006844
13:00+30ююз69605 0.0 10051367
16:00+30юз696112 0.0 10041266
19:00+27ююз5107614 0.0 1004917
22:00+24ююз41283100 0.0 1004745